This is the latest recevied weather packets stored in our database for station/object JH7UAX-10. If no packets are shown the sender has not sent any weather packets the latest 10 day(s).
| Time | Temp. | Humidity | Pressure | Rain* | Wind** | Luminosity | Snow |
|---|---|---|---|---|---|---|---|
| 1777709278 | 13.33° C | 69% | 1020.2 hPa | 0 mm | - | - | - |
| 1777708378 | 13.33° C | 70% | 1019.9 hPa | 0 mm | - | - | - |
| 1777707906 | 13.33° C | 72% | 1019.7 hPa | 0 mm | - | - | - |
| 1777707480 | 13.33° C | 73% | 1019.4 hPa | 0 mm | - | - | - |
| 1777707005 | 12.78° C | 73% | 1019.4 hPa | 0 mm | - | - | - |
| 1777706579 | 13.33° C | 73% | 1019.4 hPa | 0 mm | - | - | - |
| 1777706106 | 13.33° C | 73% | 1019.2 hPa | 0 mm | - | - | - |
| 1777705679 | 13.33° C | 71% | 1019 hPa | 0 mm | - | - | - |
| 1777705205 | 13.89° C | 71% | 1018.7 hPa | 0 mm | - | - | - |
| 1777704779 | 13.89° C | 70% | 1018.6 hPa | 0 mm | - | - | - |
| 1777704306 | 13.89° C | 70% | 1018.5 hPa | 0 mm | - | - | - |
| 1777703879 | 13.89° C | 68% | 1018.4 hPa | 0 mm | - | - | - |
| 1777703405 | 13.89° C | 67% | 1018.3 hPa | 0 mm | - | - | - |
| 1777702979 | 13.89° C | 69% | 1018.3 hPa | 0 mm | - | - | - |
| 1777702505 | 14.44° C | 68% | 1018 hPa | 0 mm | - | - | - |
| 1777702079 | 14.44° C | 65% | 1017.8 hPa | 0 mm | - | - | - |
| 1777701605 | 15° C | 61% | 1017.5 hPa | 0 mm | - | - | - |
| 1777701178 | 15° C | 59% | 1017.4 hPa | 0 mm | - | - | - |
| 1777700706 | 15.56° C | 61% | 1017.2 hPa | 0 mm | - | - | - |
| 1777700279 | 15.56° C | 62% | 1016.9 hPa | 0 mm | - | - | - |
| 1777699805 | 15.56° C | 66% | 1016.8 hPa | 0 mm | - | - | - |
| 1777699379 | 15° C | 65% | 1016.5 hPa | 0 mm | - | - | - |
| 1777698905 | 15° C | 69% | 1016.4 hPa | 0 mm | - | - | - |
| 1777698478 | 15° C | 70% | 1016.2 hPa | 0 mm | - | - | - |
| 1777697579 | 14.44° C | 73% | 1016 hPa | 0 mm | - | - | - |
* Rain latest hour (hover to see other rain measurements)
** Current wind speed in m/s (hover to see current wind gust speed)